Brinson, GA

9:32 AM EDT on September 28, 2016 (GMT -0400)
Decatur County Industrial

Weather History for KBGE - December, 2012

Change the Weather History Date:

Friday, December 14, 2012

  Actual Average (KMAI) Record (KMAI)
Temperature  
Mean Temperature 54 °F 53 °F  
Max Temperature 64 °F 64 °F 77 °F (2001)
Min Temperature 44 °F 41 °F 25 °F (2010)
Degree Days  
Heating Degree Days 11    
Month to date heating degree days  
Since 1 July heating degree days  
Cooling Degree Days 0    
Month to date cooling degree days  
Year to date cooling degree days  
Growing Degree Days 4 (Base 50)    
Moisture  
Dew Point 46 °F    
Average Humidity 80    
Maximum Humidity 100    
Minimum Humidity 55    
Precipitation  
Precipitation 0.00 in 0.13 in 0.43 in (2013)
Month to date precipitation 1.93  
Year to date precipitation 51.60  
Sea Level Pressure  
Sea Level Pressure 30.27 in    
Wind  
Wind Speed 8 mph (ENE)    
Max Wind Speed 14 mph    
Max Gust Speed 21 mph    
Visibility 10 miles    
Events      
T = Trace of Precipitation, MM = Missing Value Source: NWS Daily Summary

Daily Weather History Graph

Daily Weather History Graph

Search for Another Location

Airport or City:

Trip Planner

Search our weather history database for the weather conditions in past years. The results will help you decide how hot, cold, wet, or windy it might be!

Date:

Astronomy

Dec. 14, 2012 Rise Set
Actual Time 7:28 AM EST 5:38 PM EST
Civil Twilight 7:02 AM EST 6:04 PM EST
Nautical Twilight 6:32 AM EST 6:34 PM EST
Astronomical Twilight 6:02 AM EST 7:04 PM EST
Moon 8:36 AM EST (12/14) 7:25 PM EST (12/14)
Length of Visible Light 11h 02m
Length of Day
10h 09m
Waxing Crescent, 3% of the Moon is Illuminated
Dec 14
Waxing Crescent
Dec 20
First Quarter
Dec 28
Full
Jan 4
Last Quarter
Jan 11
New

Hourly Weather History & Observations

Time (EST) Temp. Windchill Dew Point Humidity Pressure Visibility Wind Dir Wind Speed Gust Speed Precip Events Conditions
12:15 AM 46.4 °F 40.4 °F 44.6 °F 93% 30.31 in 10.0 mi East 13.8 mph 20.7 mph N/A   Overcast
12:35 AM 46.4 °F 42.4 °F 44.6 °F 93% 30.31 in 10.0 mi East 8.1 mph - N/A   Overcast
12:55 AM 48.2 °F - 44.6 °F 87% 30.31 in 10.0 mi East 9.2 mph - N/A   Overcast
2:15 AM 50.0 °F - 44.6 °F 82% 30.30 in 10.0 mi East 8.1 mph - N/A   Overcast
2:55 AM 50.0 °F - 44.6 °F 82% 30.30 in 10.0 mi East 8.1 mph - N/A   Overcast
3:15 AM 50.0 °F - 44.6 °F 82% 30.29 in 10.0 mi East 11.5 mph - N/A   Overcast
3:35 AM 50.0 °F - 46.4 °F 87% 30.29 in 10.0 mi East 9.2 mph - N/A   Overcast
3:55 AM 50.0 °F - 46.4 °F 87% 30.29 in 10.0 mi East 9.2 mph - N/A   Overcast
4:15 AM 50.0 °F - 46.4 °F 87% 30.29 in 10.0 mi East 9.2 mph - N/A   Overcast
4:35 AM 48.2 °F - 46.4 °F 93% 30.28 in 10.0 mi East 8.1 mph - N/A   Overcast
4:55 AM 48.2 °F - 44.6 °F 87% 30.29 in 10.0 mi East 8.1 mph - N/A   Overcast
5:15 AM 48.2 °F - 44.6 °F 87% 30.29 in 10.0 mi ESE 4.6 mph - N/A   Overcast
5:35 AM 48.2 °F - 44.6 °F 87% 30.29 in 10.0 mi East 4.6 mph - N/A   Overcast
5:55 AM 48.2 °F - 46.4 °F 93% 30.31 in 10.0 mi Calm Calm - N/A   Overcast
6:15 AM 48.2 °F - 46.4 °F 93% 30.31 in 10.0 mi NE 4.6 mph - N/A   Overcast
6:35 AM 48.2 °F - 46.4 °F 93% 30.31 in 10.0 mi ENE 4.6 mph - N/A   Overcast
6:55 AM 46.4 °F - 44.6 °F 93% 30.33 in 10.0 mi Calm Calm - N/A   Overcast
7:15 AM 46.4 °F 45.2 °F 44.6 °F 93% 30.33 in 7.0 mi NNE 3.5 mph - N/A   Overcast
7:35 AM 46.4 °F 43.5 °F 44.6 °F 93% 30.33 in 7.0 mi NE 5.8 mph - N/A   Overcast
7:55 AM 46.4 °F 44.3 °F 46.4 °F 100% 30.34 in 10.0 mi NNE 4.6 mph - N/A   Overcast
8:15 AM 48.2 °F - 46.4 °F 93% 30.34 in 7.0 mi ENE 8.1 mph - N/A   Overcast
8:35 AM 50.0 °F - 46.4 °F 87% 30.34 in 7.0 mi NE 9.2 mph - N/A   Overcast
8:55 AM 50.0 °F - 46.4 °F 87% 30.35 in 10.0 mi NE 9.2 mph - N/A   Overcast
9:15 AM 50.0 °F - 44.6 °F 82% 30.36 in 10.0 mi ENE 12.7 mph - N/A   Overcast
9:35 AM 50.0 °F - 44.6 °F 82% 30.36 in 10.0 mi NE 12.7 mph - N/A   Overcast
10:15 AM 51.8 °F - 46.4 °F 82% 30.37 in 10.0 mi ENE 12.7 mph - N/A   Overcast
10:35 AM 51.8 °F - 46.4 °F 82% 30.37 in 10.0 mi ENE 12.7 mph - N/A   Overcast
10:55 AM 51.8 °F - 44.6 °F 76% 30.35 in 10.0 mi ENE 13.8 mph 17.3 mph N/A   Scattered Clouds
11:15 AM 53.6 °F - 44.6 °F 72% 30.33 in 10.0 mi ENE 13.8 mph - N/A   Scattered Clouds
11:35 AM 57.2 °F - 46.4 °F 67% 30.33 in 10.0 mi ENE 10.4 mph 16.1 mph N/A   Clear
11:55 AM 57.2 °F - 46.4 °F 67% 30.32 in 10.0 mi ENE 11.5 mph 17.3 mph N/A   Scattered Clouds
12:15 PM 59.0 °F - 46.4 °F 63% 30.31 in 10.0 mi ENE 10.4 mph - N/A   Scattered Clouds
12:35 PM 59.0 °F - 46.4 °F 63% 30.30 in 10.0 mi NE 9.2 mph - N/A   Clear
12:55 PM 59.0 °F - 46.4 °F 63% 30.28 in 10.0 mi ENE 11.5 mph - N/A   Clear
1:15 PM 60.8 °F - 46.4 °F 59% 30.26 in 10.0 mi ENE 9.2 mph - N/A   Clear
1:35 PM 62.6 °F - 48.2 °F 59% 30.25 in 10.0 mi ENE 9.2 mph 18.4 mph N/A   Clear
2:15 PM 62.6 °F - 46.4 °F 55% 30.23 in 10.0 mi East 5.8 mph - N/A   Clear
2:35 PM 62.6 °F - 46.4 °F 55% 30.22 in 10.0 mi ENE 8.1 mph - N/A   Clear
2:55 PM 62.6 °F - 46.4 °F 55% 30.22 in 10.0 mi ENE 6.9 mph - N/A   Clear
3:15 PM 62.6 °F - 46.4 °F 55% 30.21 in 10.0 mi ENE 8.1 mph - N/A   Clear
3:35 PM 62.6 °F - 46.4 °F 55% 30.21 in 10.0 mi East 3.5 mph - N/A   Clear
3:55 PM 62.6 °F - 46.4 °F 55% 30.20 in 10.0 mi East 6.9 mph - N/A   Clear
4:15 PM 64.4 °F - 48.2 °F 56% 30.20 in 10.0 mi ENE 6.9 mph - N/A   Clear
4:35 PM 62.6 °F - 48.2 °F 59% 30.18 in 10.0 mi ENE 6.9 mph - N/A   Clear
4:55 PM 62.6 °F - 48.2 °F 59% 30.18 in 10.0 mi NE 5.8 mph - N/A   Clear
5:15 PM 62.6 °F - 48.2 °F 59% 30.20 in 10.0 mi NE 3.5 mph - N/A   Clear
5:35 PM 59.0 °F - 48.2 °F 67% 30.20 in 10.0 mi North 3.5 mph - N/A   Clear
5:55 PM 57.2 °F - 48.2 °F 72% 30.22 in 10.0 mi NNW 3.5 mph - N/A   Clear
6:15 PM 53.6 °F - 48.2 °F 82% 30.23 in 10.0 mi Calm Calm - N/A   Clear
6:35 PM 51.8 °F - 48.2 °F 88% 30.23 in 10.0 mi Calm Calm - N/A   Clear
6:55 PM 51.8 °F - 48.2 °F 88% 30.23 in 10.0 mi Calm Calm - N/A   Clear
7:15 PM 51.8 °F - 48.2 °F 88% 30.23 in 10.0 mi Calm Calm - N/A   Clear
7:35 PM 51.8 °F - 50.0 °F 94% 30.23 in 10.0 mi Calm Calm - N/A   Clear
8:35 PM 50.0 °F - 46.4 °F 87% 30.23 in 10.0 mi Calm Calm - N/A   Clear
8:55 PM 50.0 °F - 46.4 °F 87% 30.23 in 10.0 mi Calm Calm - N/A   Clear
9:15 PM 46.4 °F - 46.4 °F 100% 30.23 in 10.0 mi Calm Calm - N/A   Clear
9:35 PM 46.4 °F - 44.6 °F 93% 30.21 in 10.0 mi Calm Calm - N/A   Clear
9:55 PM 44.6 °F 40.7 °F 44.6 °F 100% 30.19 in 7.0 mi East 6.9 mph - N/A   Clear
10:15 PM 46.4 °F 42.4 °F 44.6 °F 93% 30.18 in 10.0 mi East 8.1 mph - N/A   Clear
10:35 PM 48.2 °F - 46.4 °F 93% 30.19 in 10.0 mi East 3.5 mph - N/A   Clear
10:55 PM 51.8 °F - 48.2 °F 88% 30.20 in 10.0 mi Calm Calm - N/A   Clear
11:15 PM 50.0 °F - 46.4 °F 87% 30.20 in 10.0 mi Calm Calm - N/A   Clear
11:35 PM 48.2 °F - 46.4 °F 93% 30.19 in 10.0 mi Calm Calm - N/A   Clear
11:55 PM 50.0 °F - 46.4 °F 87% 30.19 in 10.0 mi Calm Calm - N/A   Clear